contact:dominique.lefevre@mio.osupytheas.fr, maurice.libes@osupytheas.fr, didier.mallarino@osupytheas.fr
Project:EMSO http://www.emso-fr.org/EMSO-France
Depth: 2436.0 m
Title:EMSO Ligure Ouest : Data MII capteur AQUADOPP
Date,Latitude,Longitude,X_East,Y_North,Z_Up,Amplitude_X,Amplitude_Y,Amplitude_Z,Batterie,SoundSpeed,Heading,Pitch,Roll,Pressure,TIS,Speed,Direction
, degrees North, degrees East, m.s-1, m.s-1,m.s-1, 1, 1, 1, Volt, m.s-1, degree, degree, degree, dbar, degree_C, m.s-1, degree
2024-04-03T00:04:03,42.805,6.029,-0.061,-0.002,-0.001,109.0,107.0,104.0,13.3,1505.2,355.0,-0.8,1.8,2471.799,13.29,0.061,268.1
2024-04-03T00:07:03,42.805,6.029,-0.051,-0.013,-0.016,109.0,107.0,106.0,13.4,1505.2,357.5,-0.8,1.8,2471.719,13.29,0.052,255.7
2024-04-03T00:10:03,42.805,6.029,-0.046,-0.003,-0.018,108.0,107.0,105.0,13.4,1505.2,8.6,-0.8,1.8,2471.799,13.29,0.046,266.3
2024-04-03T00:13:03,42.805,6.029,-0.032,-0.01,0.003,108.0,108.0,104.0,13.3,1505.2,353.3,-0.8,1.8,2471.777,13.29,0.033,252.6
2024-04-03T00:16:03,42.805,6.029,-0.023,-0.004,-0.001,109.0,107.0,104.0,13.3,1505.2,2.5,-0.8,1.8,2471.799,13.29,0.023,260.1
2024-04-03T00:19:03,42.805,6.029,-0.034,0.019,-0.01,107.0,110.0,105.0,13.4,1505.2,7.1,-0.8,1.8,2471.788,13.29,0.038,299.2
2024-04-03T00:22:02,42.805,6.029,-0.043,-0.009,-0.03,108.0,107.0,105.0,13.4,1505.2,351.2,-0.7,1.8,2471.764,13.29,0.043,258.2
2024-04-03T00:25:03,42.805,6.029,-0.034,0.007,-0.001,109.0,108.0,104.0,13.4,1505.2,3.6,-0.7,1.8,2471.788,13.29,0.034,281.6
2024-04-03T00:28:03,42.805,6.029,-0.042,0.005,0.022,107.0,107.0,105.0,13.4,1505.2,5.3,-0.8,1.8,2471.779,13.29,0.042,276.8
2024-04-03T00:31:03,42.805,6.029,-0.03,0.001,0.001,108.0,106.0,104.0,13.4,1505.2,358.9,-0.7,1.8,2471.823,13.29,0.03,271.9
2024-04-03T00:34:03,42.805,6.029,-0.025,0.001,0.014,108.0,108.0,105.0,13.4,1505.2,354.5,-0.7,1.8,2471.813,13.29,0.025,272.3
2024-04-03T00:37:03,42.805,6.029,-0.035,0.001,0.001,108.0,108.0,104.0,13.4,1505.2,358.9,-0.8,1.8,2471.823,13.29,0.035,271.6
2024-04-03T00:40:03,42.805,6.029,-0.045,0.012,-0.004,109.0,108.0,104.0,13.4,1505.2,3.5,-0.8,1.8,2471.776,13.29,0.046,284.9
2024-04-03T00:43:03,42.805,6.029,-0.036,0.018,0.003,107.0,108.0,104.0,13.4,1505.2,357.2,-0.8,1.8,2471.814,13.29,0.04,296.6
2024-04-03T00:46:03,42.805,6.029,-0.055,-0.014,0.004,108.0,106.0,105.0,13.4,1505.2,352.6,-0.8,1.8,2471.804,13.29,0.056,255.7
2024-04-03T00:49:03,42.805,6.029,-0.05,-0.01,0.02,108.0,107.0,104.0,13.3,1505.2,1.2,-0.8,1.8,2471.797,13.29,0.05,258.7
2024-04-03T00:52:03,42.805,6.029,-0.047,-0.006,-0.006,108.0,108.0,103.0,13.4,1505.2,357.0,-0.7,1.8,2471.797,13.29,0.047,262.7
2024-04-03T00:55:03,42.805,6.029,-0.042,-0.011,0.009,108.0,108.0,104.0,13.3,1505.2,1.0,-0.8,1.8,2471.769,13.29,0.043,255.3
2024-04-03T00:58:03,42.805,6.029,-0.06,0.008,0.001,109.0,106.0,104.0,13.4,1505.2,5.3,-0.8,1.8,2471.755,13.29,0.06,277.6
2024-04-03T02:04:02,42.805,6.029,-0.045,-0.013,-0.017,108.0,109.0,104.0,13.3,1505.2,1.7,-0.8,1.8,2472.203,13.28,0.046,253.9
2024-04-03T02:07:03,42.805,6.029,-0.056,0.001,-0.012,109.0,107.0,105.0,13.4,1505.2,352.7,-0.8,1.8,2472.163,13.28,0.056,271.0
2024-04-03T02:10:03,42.805,6.029,-0.053,-0.002,-0.018,108.0,107.0,104.0,13.4,1505.2,3.5,-0.8,1.8,2472.111,13.28,0.053,267.8
2024-04-03T02:13:03,42.805,6.029,-0.059,0.009,-0.027,110.0,108.0,104.0,13.4,1505.2,4.4,-0.8,1.8,2472.103,13.29,0.059,278.7
2024-04-03T02:16:03,42.805,6.029,-0.046,-0.004,-0.002,108.0,107.0,105.0,13.4,1505.2,1.8,-0.8,1.8,2472.076,13.29,0.046,265.0
2024-04-03T02:19:03,42.805,6.029,-0.061,-0.013,-0.006,109.0,107.0,105.0,13.4,1505.2,6.7,-0.8,1.8,2472.06,13.29,0.062,258.0
2024-04-03T02:22:03,42.805,6.029,-0.049,-0.003,-0.017,108.0,107.0,106.0,13.4,1505.2,353.3,-0.7,1.8,2471.999,13.29,0.049,266.5
2024-04-03T02:25:03,42.805,6.029,-0.065,-0.003,0.006,109.0,106.0,105.0,13.4,1505.2,358.3,-0.7,1.8,2471.988,13.29,0.065,267.4
2024-04-03T02:28:03,42.805,6.029,-0.039,-0.019,-0.011,109.0,107.0,104.0,13.4,1505.2,3.2,-0.8,1.8,2471.974,13.29,0.043,244.0
2024-04-03T02:31:03,42.805,6.029,-0.058,-0.021,-0.009,109.0,107.0,104.0,13.4,1505.2,355.1,-0.8,1.8,2471.978,13.29,0.061,250.1
2024-04-03T02:34:03,42.805,6.029,-0.065,-0.004,0.003,107.0,108.0,104.0,13.3,1505.2,1.8,-0.7,1.8,2471.972,13.29,0.065,266.5
2024-04-03T02:37:03,42.805,6.029,-0.065,0.016,-0.012,108.0,107.0,104.0,13.3,1505.2,5.3,-0.7,1.8,2471.949,13.29,0.066,283.8
2024-04-03T02:40:03,42.805,6.029,-0.065,-0.033,-0.019,108.0,108.0,104.0,13.3,1505.2,351.4,-0.8,1.8,2471.941,13.29,0.072,243.1
2024-04-03T02:43:03,42.805,6.029,-0.06,-0.009,-0.026,107.0,107.0,105.0,13.4,1505.2,357.6,-0.8,1.8,2471.918,13.29,0.06,261.5
2024-04-03T02:46:03,42.805,6.029,-0.058,-0.017,-0.008,109.0,107.0,105.0,13.4,1505.2,352.5,-0.7,1.8,2471.896,13.29,0.06,253.7
2024-04-03T02:49:03,42.805,6.029,-0.059,-0.013,0.0,108.0,106.0,105.0,13.3,1505.2,355.8,-0.7,1.8,2471.886,13.29,0.06,257.6
2024-04-03T02:52:03,42.805,6.029,-0.07,0.014,-0.001,107.0,107.0,105.0,13.4,1505.2,352.9,-0.8,1.8,2471.908,13.29,0.071,281.3
2024-04-03T02:55:03,42.805,6.029,-0.049,0.0,0.011,108.0,108.0,105.0,13.3,1505.2,1.8,-0.8,1.8,2471.896,13.29,0.049,270.0
2024-04-03T02:58:03,42.805,6.029,-0.06,-0.011,-0.015,108.0,108.0,104.0,13.3,1505.2,351.4,-0.8,1.8,2471.882,13.29,0.06,259.6
2024-04-03T03:04:03,42.805,6.029,-0.067,0.007,0.0,108.0,107.0,106.0,13.3,1505.2,0.6,-0.7,1.8,2471.883,13.29,0.067,276.0
2024-04-03T03:07:03,42.805,6.029,-0.052,0.008,0.019,108.0,109.0,105.0,13.4,1505.2,357.1,-0.8,1.8,2471.833,13.29,0.052,278.7
2024-04-03T03:10:03,42.805,6.029,-0.034,0.017,-0.027,109.0,108.0,105.0,13.3,1505.2,352.0,-0.7,1.8,2471.859,13.29,0.038,296.6
2024-04-03T03:13:03,42.805,6.029,-0.042,0.001,0.015,110.0,108.0,105.0,13.4,1505.2,4.5,-0.7,1.8,2471.841,13.29,0.042,271.4
2024-04-03T03:16:03,42.805,6.029,-0.064,0.004,-0.022,109.0,107.0,105.0,13.4,1505.2,356.5,-0.7,1.8,2471.854,13.29,0.064,273.6
2024-04-03T03:19:03,42.805,6.029,-0.054,-0.005,0.01,109.0,107.0,105.0,13.4,1505.2,7.3,-0.8,1.8,2471.805,13.29,0.054,264.7
2024-04-03T03:22:03,42.805,6.029,-0.038,-0.006,0.001,108.0,108.0,105.0,13.4,1505.2,351.7,-0.8,1.8,2471.843,13.29,0.038,261.0
2024-04-03T03:25:03,42.805,6.029,-0.051,0.003,-0.039,108.0,108.0,105.0,13.3,1505.2,3.6,-0.8,1.8,2471.855,13.29,0.051,273.4
2024-04-03T03:28:03,42.805,6.029,-0.044,0.01,-0.032,109.0,108.0,105.0,13.3,1505.2,4.8,-0.7,1.8,2471.858,13.29,0.045,282.8
2024-04-03T03:31:03,42.805,6.029,-0.069,-0.007,-0.028,110.0,107.0,104.0,13.4,1505.2,355.6,-0.8,1.8,2471.893,13.29,0.069,264.2
2024-04-03T03:34:03,42.805,6.029,-0.066,-0.003,0.033,108.0,107.0,105.0,13.4,1505.2,351.9,-0.8,1.8,2471.812,13.29,0.066,267.4
2024-04-03T03:37:03,42.805,6.029,-0.026,-0.012,-0.02,109.0,107.0,105.0,13.4,1505.2,356.6,-0.7,1.8,2471.84,13.29,0.028,245.2
2024-04-03T03:40:03,42.805,6.029,-0.09,0.027,-0.027,108.0,107.0,105.0,13.3,1505.2,1.6,-0.8,1.8,2471.84,13.29,0.093,286.7
2024-04-03T03:43:03,42.805,6.029,-0.059,0.017,0.007,108.0,107.0,105.0,13.4,1505.2,4.7,-0.8,1.8,2471.811,13.29,0.061,286.1
2024-04-03T03:46:03,42.805,6.029,-0.05,0.02,-0.006,109.0,108.0,105.0,13.3,1505.2,7.8,-0.8,1.8,2471.831,13.29,0.053,291.8
2024-04-03T03:49:03,42.805,6.029,-0.045,0.012,-0.018,107.0,107.0,104.0,13.4,1505.2,3.8,-0.7,1.8,2471.834,13.29,0.046,284.9
2024-04-03T03:52:03,42.805,6.029,-0.06,-0.005,-0.033,108.0,108.0,104.0,13.4,1505.2,354.5,-0.7,1.9,2471.86,13.29,0.06,265.2
2024-04-03T03:55:03,42.805,6.029,-0.055,0.019,-0.026,108.0,107.0,105.0,13.4,1505.2,0.5,-0.8,1.8,2471.839,13.29,0.058,289.1
2024-04-03T03:58:03,42.805,6.029,-0.042,0.017,-0.003,107.0,108.0,105.0,13.4,1505.2,3.2,-0.7,1.8,2471.821,13.29,0.045,292.0
2024-04-03T04:04:03,42.805,6.029,-0.069,0.009,-0.017,108.0,107.0,105.0,13.4,1505.2,1.8,-0.8,1.8,2471.874,13.29,0.069,277.4
2024-04-03T04:07:03,42.805,6.029,-0.053,0.008,-0.032,108.0,107.0,105.0,13.4,1505.2,0.0,-0.7,1.8,2471.888,13.29,0.053,278.6
2024-04-03T04:10:03,42.805,6.029,-0.046,0.016,-0.018,108.0,108.0,104.0,13.3,1505.2,359.4,-0.7,1.8,2471.842,13.29,0.048,289.2
2024-04-03T04:13:03,42.805,6.029,-0.054,0.03,-0.012,108.0,107.0,105.0,13.3,1505.2,359.4,-0.8,1.8,2471.843,13.29,0.061,299.1
2024-04-03T04:16:03,42.805,6.029,-0.071,0.014,-0.015,107.0,106.0,105.0,13.3,1505.2,355.6,-0.8,1.8,2471.801,13.29,0.072,281.2
2024-04-03T04:19:06,42.805,6.029,-0.056,0.004,0.0,108.0,107.0,105.0,13.3,1505.2,358.1,-0.7,1.8,2471.828,13.29,0.056,274.1
2024-04-03T04:22:03,42.805,6.029,-0.054,0.015,-0.006,108.0,107.0,104.0,13.3,1505.2,357.1,-0.8,1.8,2471.801,13.29,0.056,285.5
2024-04-03T04:25:02,42.805,6.029,-0.031,-0.012,-0.024,108.0,107.0,104.0,13.4,1505.2,358.9,-0.7,1.8,2471.83,13.29,0.033,248.8
2024-04-03T04:28:03,42.805,6.029,-0.049,0.021,-0.005,108.0,107.0,105.0,13.3,1505.2,5.3,-0.7,1.8,2471.835,13.29,0.053,293.2
2024-04-03T04:31:03,42.805,6.029,-0.041,0.047,-0.027,108.0,107.0,104.0,13.3,1505.2,9.0,-0.8,1.8,2471.832,13.29,0.062,318.9
2024-04-03T04:34:03,42.805,6.029,-0.043,0.0,0.0,108.0,108.0,105.0,13.3,1505.2,4.2,-0.8,1.8,2471.801,13.29,0.043,270.0
2024-04-03T04:37:03,42.805,6.029,-0.069,0.023,-0.026,109.0,106.0,104.0,13.4,1505.2,3.3,-0.7,1.8,2471.818,13.29,0.072,288.4
2024-04-03T04:40:03,42.805,6.029,-0.062,0.01,-0.007,109.0,107.0,105.0,13.4,1505.2,8.2,-0.8,1.8,2471.82,13.29,0.062,279.2
2024-04-03T04:43:03,42.805,6.029,-0.042,0.007,0.016,107.0,107.0,105.0,13.3,1505.2,350.7,-0.8,1.8,2471.804,13.29,0.042,279.5
2024-04-03T04:46:03,42.805,6.029,-0.06,0.023,-0.02,108.0,106.0,104.0,13.3,1505.2,3.4,-0.7,1.8,2471.837,13.29,0.064,291.0
2024-04-03T04:49:03,42.805,6.029,-0.064,0.041,-0.003,109.0,105.0,104.0,13.3,1505.2,8.0,-0.8,1.8,2471.799,13.29,0.076,302.6
2024-04-03T04:52:03,42.805,6.029,-0.065,0.009,-0.009,108.0,107.0,105.0,13.4,1505.2,355.0,-0.7,1.8,2471.818,13.29,0.065,277.9
2024-04-03T04:55:03,42.805,6.029,-0.065,0.023,-0.024,108.0,106.0,104.0,13.3,1505.2,3.4,-0.8,1.8,2471.803,13.29,0.068,289.5
2024-04-03T04:58:03,42.805,6.029,-0.058,0.037,-0.032,107.0,108.0,104.0,13.4,1505.2,356.5,-0.8,1.8,2471.82,13.29,0.068,302.5
2024-04-03T05:04:03,42.805,6.029,-0.053,0.026,0.0,107.0,106.0,104.0,13.3,1505.2,1.2,-0.8,1.8,2471.862,13.28,0.059,296.1
2024-04-03T05:07:03,42.805,6.029,-0.046,0.024,-0.001,107.0,106.0,104.0,13.4,1505.2,2.3,-0.7,1.8,2471.843,13.29,0.051,297.6
2024-04-03T05:10:03,42.805,6.029,-0.041,0.022,-0.011,108.0,107.0,105.0,13.3,1505.2,1.6,-0.8,1.8,2471.821,13.29,0.046,298.2
2024-04-03T05:13:03,42.805,6.029,-0.061,0.018,-0.016,108.0,108.0,103.0,13.4,1505.2,356.3,-0.8,1.8,2471.806,13.29,0.063,286.4
2024-04-03T05:16:03,42.805,6.029,-0.05,0.032,0.008,109.0,107.0,106.0,13.3,1505.2,357.1,-0.8,1.8,2471.813,13.29,0.059,302.6
2024-04-03T05:19:04,42.805,6.029,-0.067,0.034,-0.033,108.0,107.0,106.0,13.4,1505.2,7.4,-0.8,1.8,2471.794,13.29,0.075,296.9
2024-04-03T05:22:03,42.805,6.029,-0.055,0.025,-0.021,108.0,107.0,103.0,13.4,1505.2,0.6,-0.7,1.8,2471.805,13.29,0.06,294.4
2024-04-03T05:25:03,42.805,6.029,-0.066,0.029,-0.025,107.0,107.0,104.0,13.4,1505.2,4.2,-0.8,1.8,2471.818,13.29,0.072,293.7
2024-04-03T05:28:03,42.805,6.029,-0.043,0.028,-0.015,107.0,107.0,104.0,13.4,1505.2,358.8,-0.8,1.8,2471.812,13.29,0.051,303.1
2024-04-03T05:31:03,42.805,6.029,-0.064,0.022,-0.029,109.0,106.0,104.0,13.4,1505.2,7.7,-0.8,1.9,2471.777,13.29,0.067,289.0
2024-04-03T05:34:03,42.805,6.029,-0.075,0.022,0.008,109.0,107.0,104.0,13.4,1505.2,351.3,-0.7,1.8,2471.801,13.29,0.078,286.3
2024-04-03T05:37:03,42.805,6.029,-0.057,0.025,-0.004,108.0,106.0,104.0,13.4,1505.2,1.8,-0.7,1.8,2471.795,13.29,0.062,293.7
2024-04-03T05:40:03,42.805,6.029,-0.061,0.03,-0.012,108.0,107.0,104.0,13.3,1505.2,7.3,-0.8,1.8,2471.831,13.29,0.067,296.2
2024-04-03T05:43:03,42.805,6.029,-0.059,0.012,-0.004,108.0,106.0,105.0,13.4,1505.2,352.1,-0.8,1.8,2471.84,13.29,0.06,281.5
2024-04-03T05:46:03,42.805,6.029,-0.035,0.035,-0.019,108.0,107.0,104.0,13.3,1505.2,359.3,-0.8,1.8,2471.777,13.29,0.049,315.0
2024-04-03T05:49:03,42.805,6.029,-0.06,0.005,-0.016,108.0,107.0,104.0,13.4,1505.2,358.7,-0.8,1.8,2471.832,13.29,0.06,274.8
2024-04-03T05:52:02,42.805,6.029,-0.043,0.016,0.016,108.0,107.0,104.0,13.4,1505.2,357.8,-0.8,1.8,2471.824,13.29,0.045,290.4
2024-04-03T05:55:03,42.805,6.029,-0.053,0.023,-0.017,108.0,107.0,104.0,13.4,1505.2,4.5,-0.8,1.8,2471.8,13.29,0.057,293.5
2024-04-03T05:58:03,42.805,6.029,-0.076,0.012,-0.021,108.0,107.0,105.0,13.4,1505.2,358.8,-0.8,1.8,2471.811,13.29,0.076,279.0
2024-04-03T06:04:03,42.805,6.029,-0.071,0.033,-0.019,108.0,107.0,103.0,13.3,1505.2,9.0,-0.7,1.8,2471.796,13.28,0.078,294.9
2024-04-03T06:07:03,42.805,6.029,-0.057,0.041,0.002,107.0,107.0,104.0,13.4,1505.2,354.6,-0.8,1.8,2471.822,13.29,0.07,305.7
2024-04-03T06:10:03,42.805,6.029,-0.067,0.011,-0.012,108.0,107.0,104.0,13.4,1505.2,356.5,-0.8,1.8,2471.811,13.29,0.067,279.3
2024-04-03T06:13:03,42.805,6.029,-0.046,0.016,0.009,109.0,107.0,104.0,13.3,1505.2,350.1,-0.7,1.8,2471.768,13.29,0.048,289.2
2024-04-03T06:16:03,42.805,6.029,-0.061,0.017,-0.019,108.0,106.0,105.0,13.3,1505.2,4.2,-0.8,1.8,2471.794,13.29,0.063,285.6
2024-04-03T06:19:03,42.805,6.029,-0.053,0.031,-0.011,107.0,106.0,105.0,13.4,1505.2,0.5,-0.8,1.8,2471.799,13.29,0.061,300.3
2024-04-03T06:22:03,42.805,6.029,-0.06,0.004,-0.017,108.0,107.0,104.0,13.4,1505.2,356.3,-0.8,1.8,2471.807,13.29,0.06,273.8
2024-04-03T06:25:02,42.805,6.029,-0.069,0.02,0.001,107.0,106.0,104.0,13.4,1505.2,2.3,-0.7,1.8,2471.783,13.29,0.071,286.2
2024-04-03T06:28:03,42.805,6.029,-0.08,0.05,-0.03,108.0,107.0,105.0,13.3,1505.2,8.6,-0.7,1.8,2471.795,13.29,0.094,302.0
2024-04-03T06:31:03,42.805,6.029,-0.074,0.012,-0.001,108.0,106.0,104.0,13.4,1505.2,357.5,-0.8,1.8,2471.771,13.29,0.074,279.2
2024-04-03T06:34:03,42.805,6.029,-0.062,0.023,-0.035,108.0,106.0,105.0,13.4,1505.2,356.5,-0.7,1.8,2471.785,13.29,0.066,290.3
2024-04-03T06:37:03,42.805,6.029,-0.06,0.056,-0.025,106.0,107.0,103.0,13.3,1505.2,4.3,-0.8,1.9,2471.767,13.29,0.082,313.0
2024-04-03T06:40:03,42.805,6.029,-0.064,0.014,-0.007,107.0,106.0,104.0,13.4,1505.2,352.5,-0.7,1.8,2471.826,13.29,0.065,282.3
2024-04-03T06:43:03,42.805,6.029,-0.054,0.02,-0.004,107.0,105.0,104.0,13.3,1505.2,356.5,-0.7,1.8,2471.78,13.29,0.057,290.3
2024-04-03T06:46:03,42.805,6.029,-0.045,0.052,-0.047,107.0,106.0,103.0,13.4,1505.2,8.3,-0.8,1.8,2471.814,13.29,0.068,319.1
2024-04-03T06:49:03,42.805,6.029,-0.057,0.009,-0.001,106.0,106.0,104.0,13.3,1505.2,353.8,-0.8,1.8,2471.764,13.29,0.057,279.0
2024-04-03T06:52:03,42.805,6.029,-0.043,0.033,-0.008,107.0,107.0,103.0,13.4,1505.2,356.5,-0.8,1.8,2471.765,13.29,0.054,307.5
2024-04-03T06:55:03,42.805,6.029,-0.052,0.027,0.0,107.0,106.0,104.0,13.3,1505.2,354.0,-0.8,1.8,2471.776,13.29,0.058,297.4
2024-04-03T06:58:03,42.805,6.029,-0.063,0.016,0.003,107.0,107.0,103.0,13.3,1505.2,3.5,-0.8,1.8,2471.772,13.29,0.064,284.2
2024-04-03T07:04:03,42.805,6.029,-0.063,0.032,-0.007,107.0,107.0,103.0,13.4,1505.2,350.8,-0.7,1.8,2471.802,13.28,0.07,296.9
2024-04-03T07:07:03,42.805,6.029,-0.049,0.038,-0.023,107.0,107.0,103.0,13.3,1505.2,2.7,-0.7,1.8,2471.773,13.29,0.062,307.8
2024-04-03T07:10:03,42.805,6.029,-0.053,0.032,-0.048,107.0,106.0,104.0,13.4,1505.2,3.6,-0.7,1.8,2471.766,13.29,0.061,301.1
2024-04-03T07:13:03,42.805,6.029,-0.04,0.032,-0.046,107.0,106.0,103.0,13.3,1505.2,9.0,-0.8,1.9,2471.781,13.29,0.051,308.7
2024-04-03T07:16:03,42.805,6.029,-0.069,0.032,0.009,106.0,106.0,105.0,13.4,1505.2,351.2,-0.7,1.8,2471.774,13.29,0.076,294.9
2024-04-03T07:19:03,42.805,6.029,-0.059,0.03,-0.02,107.0,106.0,104.0,13.3,1505.2,3.0,-0.8,1.8,2471.747,13.29,0.066,296.9
2024-04-03T07:22:03,42.805,6.029,-0.058,0.021,-0.002,108.0,107.0,103.0,13.3,1505.2,359.4,-0.7,1.8,2471.742,13.29,0.061,289.9
2024-04-03T07:25:03,42.805,6.029,-0.054,0.03,-0.033,108.0,106.0,103.0,13.4,1505.2,357.8,-0.8,1.8,2471.752,13.29,0.061,299.1
2024-04-03T07:28:03,42.805,6.029,-0.061,0.027,-0.02,107.0,107.0,104.0,13.4,1505.2,4.6,-0.8,1.8,2471.767,13.29,0.066,293.9
2024-04-03T07:31:03,42.805,6.029,-0.059,0.04,-0.03,106.0,106.0,103.0,13.4,1505.2,357.6,-0.7,1.8,2471.785,13.29,0.071,304.1
2024-04-03T07:34:03,42.805,6.029,-0.047,0.052,-0.009,108.0,105.0,104.0,13.4,1505.2,7.1,-0.8,1.8,2471.757,13.29,0.07,317.9
2024-04-03T07:37:03,42.805,6.029,-0.063,0.021,0.0,107.0,107.0,103.0,13.3,1505.2,2.1,-0.7,1.8,2471.734,13.29,0.066,288.4
2024-04-03T07:40:03,42.805,6.029,-0.046,0.004,-0.008,107.0,106.0,104.0,13.4,1505.2,350.6,-0.7,1.8,2471.746,13.29,0.046,275.0
2024-04-03T07:43:03,42.805,6.029,-0.052,0.041,-0.005,108.0,106.0,103.0,13.4,1505.2,5.3,-0.8,1.8,2471.75,13.29,0.066,308.3
2024-04-03T07:46:03,42.805,6.029,-0.067,0.047,-0.012,106.0,105.0,104.0,13.4,1505.2,0.5,-0.8,1.8,2471.731,13.29,0.081,305.1
2024-04-03T07:49:03,42.805,6.029,-0.076,0.01,-0.023,107.0,106.0,104.0,13.3,1505.2,4.7,-0.8,1.8,2471.787,13.29,0.076,277.5
2024-04-03T07:52:03,42.805,6.029,-0.046,0.02,-0.01,106.0,105.0,104.0,13.4,1505.2,4.8,-0.8,1.8,2471.76,13.29,0.05,293.5
2024-04-03T07:55:03,42.805,6.029,-0.045,0.018,-0.018,107.0,107.0,104.0,13.3,1505.2,357.8,-0.8,1.8,2471.734,13.29,0.048,291.8
2024-04-03T07:58:03,42.805,6.029,-0.061,0.005,-0.023,107.0,106.0,104.0,13.4,1505.2,358.2,-0.8,1.8,2471.744,13.29,0.061,274.7
2024-04-03T08:04:03,42.805,6.029,-0.051,0.041,-0.027,106.0,106.0,104.0,13.3,1505.2,4.9,-0.8,1.8,2471.737,13.28,0.065,308.8
2024-04-03T08:07:03,42.805,6.029,-0.061,0.02,0.0,108.0,105.0,105.0,13.3,1505.2,5.5,-0.8,1.8,2471.752,13.29,0.064,288.1
2024-04-03T08:10:03,42.805,6.029,-0.037,0.027,-0.024,108.0,106.0,104.0,13.3,1505.2,4.6,-0.7,1.8,2471.759,13.29,0.045,306.1
2024-04-03T08:13:03,42.805,6.029,-0.053,0.042,0.01,108.0,106.0,103.0,13.4,1505.2,9.0,-0.8,1.8,2471.786,13.29,0.067,308.4
2024-04-03T08:16:03,42.805,6.029,-0.044,0.016,-0.04,108.0,107.0,104.0,13.4,1505.2,352.6,-0.7,1.8,2471.792,13.29,0.046,290.0
2024-04-03T08:19:08,42.805,6.029,-0.055,0.003,-0.028,107.0,107.0,104.0,13.3,1505.2,356.5,-0.8,1.8,2471.739,13.29,0.055,273.1
2024-04-03T08:22:03,42.805,6.029,-0.068,0.03,-0.03,107.0,106.0,104.0,13.4,1505.2,7.1,-0.7,1.8,2471.779,13.29,0.074,293.8
2024-04-03T08:25:03,42.805,6.029,-0.072,0.031,0.0,108.0,106.0,104.0,13.4,1505.2,357.7,-0.7,1.8,2471.757,13.29,0.078,293.3
2024-04-03T08:28:03,42.805,6.029,-0.048,0.026,0.027,106.0,105.0,103.0,13.4,1505.2,1.0,-0.8,1.8,2471.772,13.29,0.054,298.4
2024-04-03T08:31:03,42.805,6.029,-0.06,0.038,-0.02,105.0,106.0,103.0,13.4,1505.2,357.2,-0.8,1.8,2471.789,13.29,0.071,302.3
2024-04-03T08:34:03,42.805,6.029,-0.043,0.026,-0.024,107.0,105.0,104.0,13.3,1505.2,4.6,-0.7,1.8,2471.745,13.29,0.05,301.2
2024-04-03T08:37:03,42.805,6.029,-0.04,0.023,-0.024,107.0,106.0,104.0,13.4,1505.2,7.7,-0.8,1.8,2471.769,13.29,0.046,299.9
2024-04-03T08:40:03,42.805,6.029,-0.048,0.016,-0.007,107.0,106.0,103.0,13.4,1505.2,355.6,-0.8,1.8,2471.784,13.29,0.05,288.4
2024-04-03T08:43:03,42.805,6.029,-0.061,0.049,-0.025,107.0,105.0,104.0,13.4,1505.2,3.9,-0.8,1.8,2471.736,13.29,0.078,308.8
2024-04-03T08:46:03,42.805,6.029,-0.042,0.026,-0.003,107.0,106.0,104.0,13.4,1505.2,8.2,-0.8,1.8,2471.788,13.29,0.049,301.8
2024-04-03T08:49:03,42.805,6.029,-0.051,0.023,-0.034,107.0,107.0,103.0,13.3,1505.2,1.8,-0.7,1.8,2471.784,13.29,0.055,294.3
2024-04-03T08:52:03,42.805,6.029,-0.038,0.011,-0.036,108.0,106.0,104.0,13.3,1505.2,9.1,-0.7,1.8,2471.722,13.29,0.039,286.1
2024-04-03T08:55:03,42.805,6.029,-0.058,0.03,-0.022,107.0,106.0,103.0,13.4,1505.2,353.5,-0.7,1.8,2471.765,13.29,0.065,297.4
2024-04-03T08:58:03,42.805,6.029,-0.046,0.024,-0.016,107.0,106.0,103.0,13.4,1505.2,357.1,-0.8,1.8,2471.754,13.29,0.051,297.6
2024-04-03T09:01:03,42.805,6.029,-0.053,0.025,-0.02,106.0,107.0,103.0,13.4,1505.2,7.5,-0.8,1.8,2471.775,13.29,0.058,295.3
2024-04-03T09:04:03,42.805,6.029,-0.042,0.0,-0.005,107.0,106.0,103.0,13.3,1505.2,351.7,-0.7,1.8,2471.737,13.29,0.042,270.0
2024-04-03T09:07:03,42.805,6.029,-0.047,0.032,-0.001,107.0,106.0,103.0,13.3,1505.2,2.3,-0.8,1.8,2471.732,13.29,0.056,304.2
2024-04-03T09:10:03,42.805,6.029,-0.058,0.042,-0.007,106.0,106.0,104.0,13.4,1505.2,4.5,-0.8,1.8,2471.733,13.29,0.071,305.9
2024-04-03T09:13:03,42.805,6.029,-0.042,0.025,-0.009,106.0,106.0,103.0,13.4,1505.2,355.8,-0.8,1.8,2471.766,13.29,0.048,300.8
2024-04-03T09:16:03,42.805,6.029,-0.044,0.04,-0.026,106.0,106.0,104.0,13.4,1505.2,4.9,-0.8,1.8,2471.754,13.29,0.059,312.3
2024-04-03T09:19:03,42.805,6.029,-0.014,0.015,-0.011,105.0,105.0,105.0,13.4,1505.2,7.7,-0.7,1.8,2471.762,13.29,0.02,317.0
2024-04-03T09:22:03,42.805,6.029,-0.053,0.016,-0.033,107.0,106.0,103.0,13.3,1505.2,356.1,-0.8,1.8,2471.743,13.29,0.055,286.8
2024-04-03T09:25:03,42.805,6.029,-0.045,0.018,-0.007,107.0,106.0,103.0,13.4,1505.2,3.0,-0.8,1.8,2471.737,13.29,0.048,291.8
2024-04-03T09:28:03,42.805,6.029,-0.051,0.021,-0.028,106.0,106.0,104.0,13.4,1505.2,7.2,-0.8,1.8,2471.747,13.29,0.055,292.4
2024-04-03T09:31:03,42.805,6.029,-0.057,0.01,-0.031,107.0,105.0,103.0,13.4,1505.2,3.0,-0.7,1.8,2471.745,13.29,0.057,279.9
2024-04-03T09:34:03,42.805,6.029,-0.025,0.037,0.019,106.0,106.0,103.0,13.4,1505.2,1.1,-0.8,1.8,2471.738,13.29,0.044,326.0
2024-04-03T09:37:03,42.805,6.029,-0.055,0.037,-0.011,106.0,108.0,104.0,13.3,1505.2,2.6,-0.8,1.8,2471.74,13.29,0.066,303.9
2024-04-03T09:40:03,42.805,6.029,-0.059,0.017,-0.015,105.0,106.0,104.0,13.4,1505.2,0.6,-0.7,1.8,2471.775,13.29,0.061,286.1
2024-04-03T09:43:03,42.805,6.029,-0.059,0.01,0.002,107.0,104.0,104.0,13.4,1505.2,357.1,-0.8,1.8,2471.736,13.29,0.059,279.6
2024-04-03T09:46:03,42.805,6.029,-0.054,0.056,-0.009,106.0,105.0,103.0,13.3,1505.2,4.9,-0.7,1.8,2471.74,13.29,0.077,316.0
2024-04-03T09:49:03,42.805,6.029,-0.051,0.034,-0.005,106.0,105.0,104.0,13.4,1505.2,8.6,-0.8,1.8,2471.767,13.29,0.061,303.7
2024-04-03T09:52:03,42.805,6.029,-0.044,0.017,-0.019,106.0,106.0,104.0,13.4,1505.2,356.1,-0.8,1.8,2471.732,13.29,0.047,291.1
2024-04-03T09:55:03,42.805,6.029,-0.053,0.006,0.002,106.0,105.0,105.0,13.3,1505.2,356.0,-0.8,1.8,2471.729,13.29,0.053,276.5
2024-04-03T09:58:03,42.805,6.029,-0.037,0.017,0.001,106.0,106.0,104.0,13.4,1505.2,6.1,-0.8,1.8,2471.731,13.29,0.04,294.7
2024-04-03T10:04:03,42.805,6.029,-0.039,0.014,0.001,108.0,106.0,103.0,13.4,1505.2,358.2,-0.8,1.8,2471.793,13.29,0.041,289.7
2024-04-03T10:07:03,42.805,6.029,-0.04,-0.006,-0.014,106.0,106.0,103.0,13.4,1505.2,352.6,-0.8,1.8,2471.754,13.29,0.04,261.5
2024-04-03T10:10:03,42.805,6.029,-0.047,0.023,-0.01,106.0,105.0,104.0,13.3,1505.2,352.8,-0.8,1.8,2471.727,13.29,0.052,296.1
2024-04-03T10:13:03,42.805,6.029,-0.05,0.0,0.012,107.0,105.0,104.0,13.4,1505.2,3.3,-0.8,1.8,2471.767,13.29,0.05,270.0
2024-04-03T10:16:03,42.805,6.029,-0.031,0.003,-0.032,107.0,106.0,103.0,13.3,1505.2,7.5,-0.8,1.8,2471.748,13.29,0.031,275.5
2024-04-03T10:19:03,42.805,6.029,-0.045,0.015,-0.008,107.0,106.0,104.0,13.3,1505.2,351.4,-0.8,1.8,2471.712,13.29,0.047,288.4
2024-04-03T10:22:03,42.805,6.029,-0.044,0.006,-0.01,107.0,105.0,104.0,13.4,1505.2,350.1,-0.8,1.8,2471.763,13.29,0.044,277.8
2024-04-03T10:25:03,42.805,6.029,-0.032,0.013,0.019,106.0,107.0,104.0,13.3,1505.2,359.4,-0.8,1.8,2471.756,13.29,0.034,292.1
2024-04-03T10:28:03,42.805,6.029,-0.044,0.001,-0.016,107.0,106.0,104.0,13.3,1505.2,0.0,-0.8,1.8,2471.755,13.29,0.044,271.3
2024-04-03T10:31:03,42.805,6.029,-0.031,0.024,-0.013,107.0,106.0,103.0,13.4,1505.2,357.8,-0.7,1.8,2471.72,13.29,0.039,307.7
2024-04-03T10:34:03,42.805,6.029,-0.039,0.008,-0.011,108.0,108.0,103.0,13.4,1505.2,5.9,-0.7,1.9,2471.739,13.29,0.039,281.6
2024-04-03T10:37:03,42.805,6.029,-0.043,-0.002,-0.01,108.0,110.0,104.0,13.4,1505.2,1.7,-0.7,1.8,2471.767,13.29,0.043,267.3
2024-04-03T10:40:03,42.805,6.029,-0.055,0.018,-0.03,108.0,106.0,105.0,13.4,1505.2,9.0,-0.7,1.8,2471.735,13.29,0.057,288.1
2024-04-03T10:43:03,42.805,6.029,-0.065,0.001,-0.01,107.0,108.0,104.0,13.3,1505.2,3.9,-0.8,1.8,2471.751,13.29,0.065,270.9
2024-04-03T10:46:03,42.805,6.029,-0.027,0.005,-0.002,108.0,106.0,105.0,13.4,1505.2,1.2,-0.8,1.8,2471.764,13.29,0.027,280.5
2024-04-03T10:49:03,42.805,6.029,-0.037,0.011,0.0,107.0,106.0,105.0,13.4,1505.2,355.6,-0.7,1.8,2471.737,13.29,0.038,286.6
2024-04-03T10:52:03,42.805,6.029,-0.034,0.016,-0.013,109.0,106.0,105.0,13.3,1505.2,3.5,-0.8,1.8,2471.701,13.29,0.037,295.2
2024-04-03T10:55:03,42.805,6.029,-0.045,0.007,-0.01,107.0,107.0,104.0,13.4,1505.2,1.7,-0.8,1.8,2471.714,13.29,0.045,278.8